Flag for Germany Weather past 2 weeks in Bad Neuenahr-Ahrweiler, Rhineland-Palatinate, Germany

Now
52 °F

Passing clouds.


Feels Like: 50 °F
Forecast: 46 / 70 °F
Wind: 7 mph from East

Location: Bonn-Hangelar


UV Index: 3 (Moderate)

Visibility: 9 mi


Pressure: 29.88 "Hg

Humidity: 91%

Dew point: 49 °F

Location of Bad Neuenahr-AhrweilerLocation

Historic Weather in Bad Neuenahr-Ahrweiler

°F

Bad Neuenahr-Ahrweiler temperature yesterday

Maximum temperature yesterday: 67 °F (at 5:00 PM)
Minimum temperature yesterday: 49 °F (at 3:00 AM)
Average temperature yesterday: 57 °F

Past Weeks' High & Low Weather Summary

 TemperatureHumidityPressure
High67 °F (Apr 23, 6:00 PM)99% (Apr 12, 9:00 AM)30.44 "Hg (Apr 12, 9:00 AM)
Low32 °F (Apr 16, 6:00 AM)29% (Apr 17, 4:00 PM)29.62 "Hg (Apr 21, 2:00 PM)
Average50 °F73%30.04 "Hg
* Reported Apr 10 5:00 AM — Apr 25 5:00 AM, Bad Neuenahr-Ahrweiler, Weather by CustomWeather, © 2014

Note: Actual official high and low records may vary slightly from our data, if they occured in-between our weather recording intervals... More about our weather records

Advertising

Historic Weather Conditions — Data for Previous 24 hours

 ConditionsComfort  
Time TempWeatherWind HumidityBarometerVisibility
5:00 AM
Apr 25
52 °FPassing clouds.7 mph91%29.88 "Hg9 mi
4:00 AM50 °FPassing clouds.6 mph94%29.90 "Hg9 mi
3:00 AM51 °FPassing clouds.6 mph94%29.91 "Hg16 mi
2:00 AM51 °FPassing clouds.6 mph94%29.93 "Hg19 mi
1:00 AM50 °FPassing clouds.5 mph92%29.96 "Hg22 mi
12:00 AM53 °FPassing clouds.3 mph85%29.97 "Hg25 mi
11:00 PM
Apr 24
55 °FPassing clouds.5 mph80%29.98 "Hg28 mi
10:00 PM53 °FPassing clouds.1 mph84%29.99 "Hg22 mi
9:00 PM55 °FOvercast.3 mph84%30.00 "Hg19 mi
8:00 PM56 °FOvercast.2 mph85%30.00 "Hg19 mi
7:00 PM57 °FLight rain. Overcast.3 mph79%30.01 "Hg9 mi
6:00 PM61 °FThundershowers. Overcast.5 mph71%30.00 "Hg9 mi
5:00 PM67 °FThunderstorms. Overcast.3 mph56%29.99 "Hg12 mi
4:00 PM66 °FPartly sunny.3 mph55%30.01 "Hg12 mi
3:00 PM66 °FPassing clouds.2 mph51%30.04 "Hg12 mi
2:00 PM64 °FPassing clouds.2 mph57%30.06 "Hg12 mi
1:00 PM61 °FOvercast.2 mph66%30.09 "Hg19 mi
12:00 PM61 °FOvercast.5 mph67%30.10 "Hg19 mi
11:00 AM61 °FOvercast.7 mph62%30.10 "Hg25 mi
10:00 AM62 °FOvercast.5 mph67%30.10 "Hg25 mi
9:00 AM61 °FOvercast.2 mph63%30.09 "Hg31 mi
8:00 AM55 °FOvercast.5 mph74%30.10 "Hg31 mi
7:00 AM54 °FOvercast.1 mph72%30.09 "Hg31 mi
6:00 AM52 °FOvercast.3 mph80%30.09 "Hg31 mi
Weather by CustomWeather, © 2014

See weather overview